Zurück zum Katalog

CZ-6A DEB

AktivPO
NORAD 60778·DEBRIS·🇨🇳 China

Gestartet Aug 6, 2024 von Taiyuan Satellite Launch Center

Loading…

Nächste Überflüge (nächste 24 Stunden)

TLE

AktuellSource: Space-Track

Epoche: Sep 14, 2026, 06:01 UTC

1 60778U 24140FD  26257.25095622  .00312518  00000-0  64970-2 0  9990
2 60778  88.9888 255.7712 0023370 163.3586 196.8445 15.44231161113106

Verfolge CZ-6A DEB in Echtzeit mit AllMySat

Download on the App Store